Flag for Canada Weather past 2 weeks in Corner Brook, Newfoundland and Labrador, Canada

Now
70 °F

Mostly cloudy.


Feels Like: 70 °F
Forecast: 61 / 71 °F
Wind: 3 mph from Southwest

Location: Deer Lake

Current Time: Jul 24, 2014 at 5:51:30 PM

Latest Report: Jul 24, 2014 at 4:30 PM


Visibility: 15 mi

Pressure: 29.74 "Hg

Humidity: 83%

Dew point: 64 °F

Location of Corner BrookLocation

Historic Weather in Corner Brook — Graph

°F

Corner Brook temperature yesterday

Maximum temperature yesterday: 84 °F (at 2:30 PM)
Minimum temperature yesterday: 64 °F (at 2:30 AM)
Average temperature yesterday: 75 °F

Past Weeks' High & Low Weather Summary

 TemperatureHumidityPressure
High90 °F (Jul 9, 4:30 PM)100% (Jul 10, 3:30 AM)30.23 "Hg (Jul 10, 3:30 AM)
Low50 °F (Jul 12, 4:30 AM)32% (Jul 20, 3:30 PM)29.60 "Hg (Jul 24, 2:30 AM)
Average69 °F72%29.95 "Hg
* Reported Jul 9 4:30 PM — Jul 24 4:30 PM, Corner Brook, Weather by CustomWeather, © 2014

Note: Actual official high and low records may vary slightly from our data, if they occured in-between our weather recording intervals... More about our weather records

Advertising

Corner Brook weather history for previous 24 hours

 ConditionsComfort  
Time TempWeatherWind HumidityBarometerVisibility
4:30 PM
Jul 24
70 °FMostly cloudy.3 mph83%29.74 "Hg15 mi
4:18 PM70 °FMostly cloudy.3 mph88%29.74 "Hg15 mi
3:30 PM68 °FSprinkles. Mostly cloudy.7 mph88%29.75 "Hg10 mi
3:20 PM70 °FSprinkles. Overcast.9 mph83%29.75 "Hg8 mi
2:30 PM75 °FMostly cloudy.10 mph69%29.73 "Hg15 mi
1:30 PM75 °FPartly sunny.6 mph74%29.71 "Hg15 mi
12:30 PM77 °FBroken clouds.9 mph69%29.71 "Hg15 mi
11:30 AM73 °FBroken clouds.8 mph78%29.72 "Hg8 mi
10:30 AM72 °FPartly sunny.9 mph83%29.70 "Hg10 mi
9:30 AM72 °FPartly sunny.13 mph88%29.69 "Hg8 mi
9:26 AM72 °FPartly sunny.12 mph88%29.69 "Hg8 mi
8:30 AM70 °FSprinkles. Mostly cloudy.7 mph94%29.68 "Hg8 mi
8:18 AM70 °FSprinkles. Mostly cloudy.7 mph94%29.67 "Hg8 mi
7:30 AM70 °FSprinkles. Cloudy.13 mph94%29.66 "Hg8 mi
6:30 AM70 °FSprinkles. Mostly cloudy.16 mph94%29.64 "Hg7 mi
5:30 AM73 °FSprinkles. Partly cloudy.17 mph83%29.63 "Hg10 mi
4:30 AM73 °FPartly cloudy.17 mph78%29.61 "Hg15 mi
3:30 AM75 °FMostly cloudy.17 mph74%29.60 "Hg15 mi
2:30 AM75 °FMostly cloudy.18 mph74%29.60 "Hg15 mi
1:30 AM75 °FPartly cloudy.20 mph74%29.60 "Hg15 mi
12:30 AM77 °FMostly cloudy.15 mph69%29.61 "Hg15 mi
11:30 PM
Jul 23
77 °FMostly cloudy.15 mph69%29.62 "Hg15 mi
10:30 PM75 °FPassing clouds.7 mph74%29.64 "Hg15 mi
9:30 PM77 °FPartly sunny.9 mph69%29.65 "Hg15 mi
8:30 PM77 °FPassing clouds.13 mph69%29.63 "Hg15 mi
7:30 PM81 °FPassing clouds.18 mph62%29.63 "Hg15 mi
6:30 PM82 °FScattered clouds.21 mph58%29.63 "Hg15 mi
5:30 PM82 °FScattered clouds.17 mph58%29.64 "Hg15 mi
Weather by CustomWeather, © 2014

See weather overviewHow to use our weather pages